TimeCDT,TemperatureF,Dew PointF,Humidity,Sea Level PressureIn,VisibilityMPH,Wind Direction,Wind SpeedMPH,Gust SpeedMPH,PrecipitationIn,Events,Conditions,WindDirDegrees,DateUTC
12:53 AM,66.9,57.0,70,29.92,-9999.0,NE,6.9,-,N/A,,Unknown,40,2013-04-28 05:53:00
1:53 AM,66.9,57.9,73,29.91,-9999.0,NNE,6.9,-,N/A,,Unknown,30,2013-04-28 06:53:00
2:53 AM,68.0,59.0,73,29.91,-9999.0,NE,6.9,-,N/A,,Unknown,40,2013-04-28 07:53:00
3:53 AM,68.0,59.0,73,29.89,-9999.0,NE,6.9,-,N/A,,Unknown,50,2013-04-28 08:53:00
4:53 AM,69.1,61.0,75,29.88,-9999.0,ENE,6.9,-,N/A,,Unknown,60,2013-04-28 09:53:00
5:53 AM,69.1,59.0,70,29.87,-9999.0,ENE,9.2,-,N/A,,Unknown,60,2013-04-28 10:53:00
6:53 AM,69.1,59.0,70,29.88,-9999.0,East,10.4,-,N/A,,Unknown,80,2013-04-28 11:53:00
7:53 AM,66.9,62.1,84,29.91,-9999.0,East,10.4,-,N/A,,Unknown,90,2013-04-28 12:53:00
8:53 AM,68.0,61.0,78,29.93,-9999.0,ESE,11.5,-,N/A,,Unknown,120,2013-04-28 13:53:00
9:53 AM,69.1,61.0,75,29.93,-9999.0,SE,13.8,-,N/A,,Unknown,140,2013-04-28 14:53:00
10:53 AM,73.0,60.1,64,29.92,-9999.0,SE,8.1,-,N/A,,Unknown,130,2013-04-28 15:53:00
11:53 AM,77.0,60.1,56,29.90,-9999.0,East,6.9,-,N/A,,Unknown,90,2013-04-28 16:53:00
12:53 PM,80.1,59.0,48,29.88,-9999.0,ESE,9.2,-,N/A,,Unknown,120,2013-04-28 17:53:00
1:53 PM,82.0,57.0,42,29.86,-9999.0,East,9.2,-,N/A,,Unknown,90,2013-04-28 18:53:00
2:53 PM,84.9,57.9,40,29.82,-9999.0,East,12.7,18.4,N/A,,Unknown,90,2013-04-28 19:53:00
3:53 PM,84.9,55.0,36,29.78,-9999.0,ESE,15.0,20.7,N/A,,Unknown,110,2013-04-28 20:53:00
4:53 PM,84.9,53.1,33,29.75,-9999.0,East,10.4,21.9,N/A,,Unknown,100,2013-04-28 21:53:00
5:53 PM,84.0,48.9,29,29.74,-9999.0,ESE,10.4,-,N/A,,Unknown,110,2013-04-28 22:53:00
6:53 PM,80.1,54.0,40,29.77,-9999.0,SE,17.3,23.0,N/A,,Unknown,140,2013-04-28 23:53:00
7:53 PM,73.9,55.9,53,29.76,-9999.0,South,8.1,-,N/A,,Unknown,180,2013-04-29 00:53:00
8:53 PM,71.1,53.1,53,29.77,-9999.0,West,12.7,21.9,N/A,,Unknown,260,2013-04-29 01:53:00
9:53 PM,68.0,54.0,61,29.83,-9999.0,West,10.4,-,N/A,,Unknown,280,2013-04-29 02:53:00
10:53 PM,69.1,51.1,53,29.87,-9999.0,NNW,11.5,-,N/A,,Unknown,330,2013-04-29 03:53:00
11:23 PM,69.8,46.4,43,29.99,-9999.0,NNE,24.2,32.2,N/A,,Unknown,20,2013-04-29 04:23:00
11:53 PM,64.0,53.1,67,29.89,-9999.0,North,15.0,21.9,N/A,,Unknown,360,2013-04-29 04:53:00